STARLINK-3283 (50179 NORAD) Tracking and Keplerian Element Data

This shows tracking and keplerian element data for the satellite.

Feedback or suggestion? Click here.




ElementValue
Catalog50179
NameSTARLINK-3283
Epoch Orbit130
Epoch Day140.58334491
Epoch Year2022
RAAN5.0622
Inclination53.2184
Eccentricity0.0002039
Argument of Perigee41.1541
Mean Anonmoly25.3541
Mean Motion15.08845487
Decay Rate-7.77E-05
L11 50179U 21125Z 22140.58334491 -.00007770 00000+0 -47053-3 0 9993
L22 50179 53.2184 5.0622 0002039 41.1541 25.3541 15.08845487 1306

Live tracking and technical data element details for STARLINK-3283 (NORAD 50179). STARLINK-3283 can be tracked NOW for your location showing map with azimuth and elevation plus other details from your city location.

Track the satellite on the map from your city or location and see movement details for azimuth, elevation, latitude, longitude, range, height, and movement on the map or in text.







IsCatalogInMostPopularTable: catalog: 50179, numindb: 20
Update: records affected: 1



GetName: 50179 STARLINK-3283

Hit Count: updated at: Sun, 22 May 2022 04:23:30 GMT